Find Starlink 34843

NORAD ID: 65201 Int'l Des: 2025-176 Owner: SPXS Country: US Constellation: starlink operational
LEOCIRCULAR

リアルタイム位置

3D地球を読み込み中...

Starlink 34843について

説明を読み込み中...

次回通過

Passes for default location (London). Set your location on the main map for personalized predictions.

高度履歴

Loading altitude history...

軌道要素

1 65201U 25176D 26106.93275917 .00014764 00000-0 50943-3 0 9999
2 65201 53.1596 335.2339 0002080 82.8079 277.3159 15.30211319 38974
Epoch: Apr 16, 2026 • Age: 14 hours

現在のステータス

高度 477.9 km
速度 7.63 km/s
衛星直下点 41.84°N, 22.45°W
打ち上げ日 Aug 14, 2025
運用期間 0.6 years
タイプ internet

技術仕様

分類 Payload
質量 575.00 kg
乾燥質量 530.00 kg
総質量 575.00 kg
長さ 0.30 m
直径 4.10 m
スパン 29.00 m
形状 Box + pan
製造者 SPXS
バスタイプ Starlink V2MO
フェーズステータス In Orbit
所有者/国 SPXS/US

Most Searched